Weather History for KNQX - September, 2013

Change the Weather History Date:

Monday, September 16, 2013

  Actual Average Record
Temperature  
Mean Temperature 78 °F -  
Max Temperature 82 °F 87 °F 93 °F (2011)
Min Temperature 75 °F 78 °F 72 °F (1948)
Cooling Degree Days 14    
Growing Degree Days 28 (Base 50)    
Moisture  
Dew Point 76 °F    
Average Humidity 88    
Maximum Humidity 100    
Minimum Humidity 76    
Precipitation  
Precipitation 1.11 in - - ()
Sea Level Pressure  
Sea Level Pressure 29.98 in    
Wind  
Wind Speed 11 mph (East)    
Max Wind Speed 24 mph    
Max Gust Speed 29 mph    
Visibility 8 miles    
Events Fog , Rain , Thunderstorm    
Averages and records for this station are not official NWS values.
T = Trace of Precipitation, MM = Missing Value Source: NWS Daily Summary

Daily Weather History Graph

Daily Weather History Graph

Search for Another Location

Airport or City:

Trip Planner

Search our weather history database for the weather conditions in past years. The results will help you decide how hot, cold, wet, or windy it might be!

Date:

Astronomy

Sep. 16, 2013 Rise Set
Actual Time 7:13 AM EDT 7:29 PM EDT
Civil Twilight 6:50 AM EDT 7:52 PM EDT
Nautical Twilight 6:23 AM EDT 8:18 PM EDT
Astronomical Twilight 5:57 AM EDT 8:45 PM EDT
Moon 5:25 PM EDT (9/16) 4:13 AM EDT (9/16)
Length of Visible Light 13h 01m
Length of Day
12h 15m
Waxing Gibbous, 90% of the Moon is Illuminated
Sep 16
Waxing Gibbous
Sep 19
Full
Sep 26
Last Quarter
Oct 4
New
Oct 11
First Quarter

Hourly Weather History & Observations

Time (EDT) Temp. Heat Index Dew Point Humidity Pressure Visibility Wind Dir Wind Speed Gust Speed Precip Events Conditions
12:53 AM 81.0 °F 89.2 °F 79.0 °F 94% 30.01 in 10.0 mi ENE 8.1 mph - N/A   Clear
1:53 AM 81.0 °F 87.9 °F 77.0 °F 88% 29.98 in 10.0 mi NE 5.8 mph - N/A   Clear
2:53 AM 81.0 °F 88.6 °F 78.1 °F 91% 29.96 in 10.0 mi ENE 4.6 mph - N/A   Clear
3:53 AM 81.0 °F 88.6 °F 78.1 °F 91% 29.95 in 10.0 mi ENE 5.8 mph - N/A   Clear
4:53 AM 81.0 °F 87.9 °F 77.0 °F 88% 29.93 in 10.0 mi ENE 8.1 mph - N/A   Partly Cloudy
5:53 AM 81.0 °F 88.6 °F 78.1 °F 91% 29.95 in 10.0 mi East 9.2 mph - N/A   Scattered Clouds
6:03 AM 80.6 °F 88.1 °F 78.8 °F 94% 29.96 in 10.0 mi East 11.5 mph - N/A   Mostly Cloudy
6:53 AM 82.0 °F 89.4 °F 75.9 °F 82% 29.98 in 10.0 mi East 12.7 mph 20.7 mph N/A   Mostly Cloudy
7:53 AM 82.0 °F 89.4 °F 75.9 °F 82% 29.99 in 10.0 mi East 11.5 mph - N/A   Mostly Cloudy
8:53 AM 82.0 °F 89.4 °F 75.9 °F 82% 29.98 in 10.0 mi East 10.4 mph - N/A   Mostly Cloudy
9:53 AM 82.9 °F 91.8 °F 77.0 °F 82% 29.99 in 10.0 mi ENE 9.2 mph - N/A   Mostly Cloudy
10:04 AM 78.8 °F - 75.2 °F 89% 30.01 in 2.5 mi East 20.7 mph 28.8 mph 0.05 in Rain Rain
10:06 AM 78.8 °F - 75.2 °F 89% 30.01 in 0.5 mi East 21.9 mph 28.8 mph 0.11 in Fog , Rain Rain
10:08 AM 77.0 °F - 75.2 °F 94% 30.01 in 0.2 mi ESE 24.2 mph 28.8 mph 0.20 in Rain , Thunderstorm Thunderstorms and Rain
10:17 AM 75.2 °F - 73.4 °F 94% 30.02 in 0.2 mi SE 13.8 mph - 0.53 in Rain , Thunderstorm Heavy Thunderstorms and Rain
10:37 AM 77.0 °F - 75.2 °F 94% 30.04 in 0.5 mi SE 18.4 mph 27.6 mph 1.01 in Rain , Thunderstorm Heavy Thunderstorms and Rain
10:41 AM 77.0 °F - 75.2 °F 94% 30.04 in 2.0 mi SSE 17.3 mph 27.6 mph 1.02 in Rain Rain
10:48 AM 78.8 °F - 77.0 °F 94% 30.03 in 4.0 mi SSE 15.0 mph 24.2 mph 1.02 in Rain Rain
10:53 AM 77.0 °F - 77.0 °F 100% 30.02 in 4.0 mi SSE 17.3 mph 21.9 mph 1.03 in Rain Rain
11:53 AM 79.0 °F - 75.9 °F 90% 30.01 in 9.0 mi ENE 16.1 mph 23.0 mph 0.07 in Rain Light Rain
12:53 PM 79.0 °F - 73.0 °F 82% 30.01 in 10.0 mi East 17.3 mph - 0.01 in   Mostly Cloudy
1:53 PM 80.1 °F 84.2 °F 73.0 °F 79% 29.96 in 10.0 mi East 16.1 mph 28.8 mph N/A   Mostly Cloudy
2:53 PM 81.0 °F 85.8 °F 73.0 °F 77% 29.95 in 10.0 mi ESE 16.1 mph 21.9 mph N/A   Mostly Cloudy
3:53 PM 81.0 °F 86.2 °F 73.9 °F 79% 29.94 in 10.0 mi East 10.4 mph - N/A   Mostly Cloudy
4:53 PM 82.0 °F 87.9 °F 73.9 °F 76% 29.93 in 10.0 mi ENE 6.9 mph - N/A   Mostly Cloudy
5:53 PM 81.0 °F 86.7 °F 75.0 °F 82% 29.94 in 10.0 mi ENE 8.1 mph - N/A   Mostly Cloudy
6:53 PM 81.0 °F 86.2 °F 73.9 °F 79% 29.95 in 10.0 mi East 10.4 mph - N/A   Mostly Cloudy
7:53 PM 80.1 °F 85.4 °F 75.9 °F 87% 29.96 in 10.0 mi ENE 6.9 mph - N/A   Mostly Cloudy
8:53 PM 80.1 °F 85.8 °F 77.0 °F 90% 29.98 in 10.0 mi NE 6.9 mph - N/A   Mostly Cloudy
10:53 PM 79.0 °F - 77.0 °F 94% 29.97 in 10.0 mi NE 6.9 mph - N/A   Clear
11:53 PM 80.1 °F 85.4 °F 75.9 °F 87% 29.96 in 10.0 mi ENE 8.1 mph - N/A   Clear